Weather reports worldwide

Advertisment
Ponza, Italy (16280): temperature & dewpoint: 03.08.2020 21:00:00 - 09.08.2020 21:00:00 (CEST)Ponza, Italy (16280): wind speed & gusts: 03.08.2020 21:00:00 - 09.08.2020 21:00:00 (CEST)Ponza, Italy (16280): wind direction: 03.08.2020 21:00:00 - 09.08.2020 21:00:00 (CEST)Ponza, Italy (16280): reduced air pressure: 03.08.2020 21:00:00 - 09.08.2020 21:00:00 (CEST)Ponza, Italy (16280): visibility: 03.08.2020 21:00:00 - 09.08.2020 21:00:00 (CEST)Ponza, Italy (16280): sunshine duration: 03.08.2020 21:00:00 - 09.08.2020 21:00:00 (CEST)
Date & Time tt [°C] td [°C] ff [km/h] ff [kn] fx [km/h] fx [kn] dd ppp [hPa] vv [km] sd [min]
09.08.2020 21:00:00 25,8 22,9 11 6 22 12 NW 1013,0 30 -
09.08.2020 20:00:00 26,0 24,0 9 5 - - NW 1012,6 30 -
09.08.2020 19:00:00 27,6 25,2 22 12 33 18 W 1011,9 30 60
09.08.2020 18:00:00 29,0 24,1 15 8 28 15 WNW 1012,1 30 60
09.08.2020 17:00:00 30,2 22,1 15 8 - - W 1012,5 30 60
09.08.2020 16:00:00 30,0 23,2 13 7 - - W 1012,7 30 60
09.08.2020 15:00:00 30,4 24,3 11 6 - - WSW 1013,0 30 60
09.08.2020 14:00:00 30,8 24,7 8 4 - - WSW 1013,3 30 60
09.08.2020 13:00:00 31,0 19,7 4 2 - - N 1013,7 30 60
09.08.2020 12:00:00 31,6 20,9 9 5 - - E 1013,8 30 60
09.08.2020 11:00:00 31,6 18,9 8 4 - - ENE 1013,7 30 60
09.08.2020 10:00:00 29,4 18,5 8 4 16 9 NE 1013,9 30 60
09.08.2020 09:00:00 27,0 21,7 11 6 - - NNW 1013,8 30 60
09.08.2020 08:00:00 25,4 22,5 13 7 - - WNW 1013,6 30 60
09.08.2020 07:00:00 25,0 23,1 9 5 - - WNW 1013,2 40 0
09.08.2020 06:00:00 25,8 17,2 9 5 - - NNE 1013,1 50 -
09.08.2020 05:00:00 25,2 17,7 13 7 - - E 1013,1 50 -
09.08.2020 04:00:00 25,0 17,0 13 7 - - E 1013,1 50 -
09.08.2020 03:00:00 26,2 16,5 15 8 23 12 ENE 1013,1 50 -
09.08.2020 02:00:00 26,6 16,0 21 11 - - NE 1013,1 50 -
09.08.2020 01:00:00 25,6 17,0 18 10 - - NE 1013,1 50 -
09.08.2020 00:00:00 25,6 16,5 16 9 - - NE 1013,3 50 -
08.08.2020 23:00:00 25,6 19,0 21 11 - - ENE 1013,2 50 -
08.08.2020 22:00:00 24,8 24,0 9 5 23 13 ESE 1013,2 40 -
08.08.2020 21:00:00 25,0 24,3 16 9 - - SE 1012,9 30 -
08.08.2020 20:00:00 26,0 21,9 11 6 - - SSW 1012,8 20 30
08.08.2020 19:00:00 27,6 24,2 9 5 - - WSW 1012,7 30 60
08.08.2020 18:00:00 27,6 22,7 9 5 - - WSW 1012,8 30 48
08.08.2020 17:00:00 27,8 23,0 11 6 - - SSW 1012,8 30 24
08.08.2020 16:00:00 28,4 19,6 11 6 - - SW 1012,9 30 48
08.08.2020 15:00:00 28,6 23,7 9 5 21 12 W 1013,0 30 48
08.08.2020 14:00:00 28,8 24,1 9 5 - - WSW 1013,3 30 60
08.08.2020 13:00:00 28,6 23,7 11 6 18 10 SW 1013,6 30 60
08.08.2020 12:00:00 28,6 21,1 5 3 - - SE 1013,9 30 60
08.08.2020 11:00:00 29,6 21,0 4 2 - - N 1013,9 20 60
08.08.2020 10:00:00 26,2 16,7 4 2 - - N 1014,0 15 60
08.08.2020 09:00:00 25,2 21,5 15 8 - - NNW 1014,4 10 60
08.08.2020 08:00:00 25,0 23,2 9 5 - - W 1014,0 10 60
08.08.2020 07:00:00 25,0 23,2 11 6 - - WNW 1014,0 10 60
08.08.2020 06:00:00 24,0 23,5 8 4 - - NW 1014,0 10 -
08.08.2020 05:00:00 24,0 23,5 15 8 - - WNW 1014,0 10 -
08.08.2020 04:00:00 - - - - - - - - - -
08.08.2020 03:00:00 25,0 23,6 18 10 - - WNW 1014,2 20 -
08.08.2020 02:00:00 25,0 23,2 13 7 - - W 1014,4 20 -
08.08.2020 01:00:00 - - - - - - - - - -
08.08.2020 00:00:00 25,0 23,6 11 6 - - W 1015,1 15 -
07.08.2020 23:00:00 25,0 22,3 13 7 - - W 1015,2 15 -
07.08.2020 22:00:00 25,0 20,9 15 8 - - WNW 1015,2 15 -
07.08.2020 21:00:00 25,0 22,5 22 12 27 15 WNW 1015,0 15 -
07.08.2020 20:00:00 25,0 23,2 22 12 - - WNW 1014,8 15 24
07.08.2020 19:00:00 26,0 20,6 18 10 - - WNW 1014,2 20 60
07.08.2020 18:00:00 28,4 19,9 11 6 - - W 1014,0 20 60
07.08.2020 17:00:00 29,0 20,2 4 2 - - N 1013,9 15 60
07.08.2020 16:00:00 29,0 19,9 4 2 - - N 1014,2 20 60
07.08.2020 15:00:00 28,2 19,4 9 5 - - W 1014,4 20 60
07.08.2020 14:00:00 30,0 19,7 5 3 - - NE 1014,5 20 60
07.08.2020 13:00:00 29,4 19,4 4 2 - - N 1014,3 20 60
07.08.2020 12:00:00 29,2 19,5 8 4 17 9 ENE 1014,5 20 60
07.08.2020 11:00:00 28,0 20,0 9 5 - - ENE 1014,2 15 60
07.08.2020 10:00:00 26,4 19,5 16 9 - - N 1014,2 20 60
07.08.2020 09:00:00 25,2 18,9 21 11 - - E 1014,3 20 60
07.08.2020 08:00:00 24,6 20,3 18 10 - - ESE 1013,6 20 42
07.08.2020 07:00:00 23,8 20,3 13 7 - - ESE 1013,5 20 -
07.08.2020 06:00:00 - - - - - - - - - -
07.08.2020 05:00:00 - - - - - - - - - -
07.08.2020 04:00:00 23,4 22,4 13 7 - - SE 1013,5 20 -
07.08.2020 03:00:00 23,4 22,4 8 4 - - SSE 1013,5 20 -
07.08.2020 02:00:00 23,4 22,2 5 3 - - S 1013,5 20 -
07.08.2020 01:00:00 23,6 22,0 15 8 - - SSW 1013,3 20 -
07.08.2020 00:00:00 - - - - - - - - - -
06.08.2020 23:00:00 23,8 22,3 11 6 - - WSW 1013,3 20 -
06.08.2020 22:00:00 23,6 21,7 11 6 - - WNW 1013,3 20 -
06.08.2020 21:00:00 23,8 20,5 11 6 - - WNW 1012,9 20 -
06.08.2020 20:00:00 24,2 19,1 15 8 - - WNW 1012,7 20 42
06.08.2020 19:00:00 24,6 20,3 21 11 - - WNW 1012,3 20 60
06.08.2020 18:00:00 25,4 19,1 21 11 - - WNW 1012,2 20 60
06.08.2020 17:00:00 26,8 19,2 16 9 - - W 1011,8 20 60
06.08.2020 16:00:00 26,8 19,4 13 7 - - W 1011,9 20 60
06.08.2020 15:00:00 - - - - - - - - - -
06.08.2020 14:00:00 26,6 18,2 11 6 - - WSW 1012,6 20 60
06.08.2020 13:00:00 - - - - - - - - - -
06.08.2020 12:00:00 - - - - - - - - - -
06.08.2020 11:00:00 - - - - - - - - - -
06.08.2020 10:00:00 24,6 19,2 9 5 - - NW 1011,9 40 60
06.08.2020 09:00:00 23,0 19,6 9 5 - - WNW 1011,5 40 60
06.08.2020 08:00:00 23,0 20,5 11 6 - - NNW 1011,3 40 60
06.08.2020 07:00:00 22,2 19,4 13 7 - - NNW 1011,0 40 0
06.08.2020 06:00:00 21,4 19,3 9 5 - - NNW 1010,6 50 -
06.08.2020 05:00:00 21,6 17,4 9 5 - - N 1010,5 50 -
06.08.2020 04:00:00 21,8 17,2 4 2 - - N 1010,6 50 -
06.08.2020 03:00:00 21,8 17,0 4 2 - - N 1010,4 50 -
06.08.2020 02:00:00 21,6 16,5 9 5 - - SE 1010,4 50 -
06.08.2020 01:00:00 - - - - - - - - - -
06.08.2020 00:00:00 21,6 17,2 15 8 - - ESE 1010,6 50 60
05.08.2020 23:00:00 21,6 18,6 13 7 - - ESE 1010,4 50 -
05.08.2020 22:00:00 21,6 19,0 15 8 - - ESE 1010,3 50 -
05.08.2020 21:00:00 22,8 18,5 9 5 - - NE 1010,0 50 -
05.08.2020 20:00:00 23,0 16,1 8 4 - - NNE 1009,3 40 0
05.08.2020 19:00:00 22,8 18,1 4 2 - - N 1009,2 20 0
05.08.2020 18:00:00 24,4 18,1 4 2 - - N 1009,0 40 48
05.08.2020 17:00:00 25,4 17,9 4 2 - - N 1008,8 40 60
05.08.2020 16:00:00 25,8 19,0 15 8 - - NNW 1008,8 40 60
05.08.2020 15:00:00 25,2 18,9 11 6 - - NW 1008,3 40 60
05.08.2020 14:00:00 24,2 17,9 9 5 - - W 1008,6 40 60
05.08.2020 13:00:00 25,2 18,6 9 5 - - NNW 1008,5 40 60
05.08.2020 12:00:00 24,0 17,5 9 5 - - NW 1008,3 40 36
05.08.2020 11:00:00 22,6 19,0 13 7 - - NW 1008,2 20 18
05.08.2020 10:00:00 22,4 18,8 13 7 19 11 N 1008,0 30 0
05.08.2020 09:00:00 22,8 17,0 9 5 19 11 W 1007,6 30 60
05.08.2020 08:00:00 21,8 16,7 8 4 - - WNW 1007,4 30 24
05.08.2020 07:00:00 20,6 17,4 9 5 17 9 NW 1007,5 30 -
05.08.2020 06:00:00 20,2 16,7 15 8 23 12 NNW 1007,7 20 -
05.08.2020 05:00:00 20,0 16,0 22 12 - - NNW 1007,3 20 -
05.08.2020 04:00:00 20,0 17,8 34 18 51 27 N 1007,3 20 -
05.08.2020 03:00:00 20,2 15,8 9 5 - - WNW 1007,7 20 -
05.08.2020 02:00:00 18,4 18,4 4 2 - - N 1008,0 20 -
05.08.2020 01:00:00 16,0 16,0 39 21 91 49 NE 1008,5 0,1 -
05.08.2020 00:00:00 21,0 17,2 11 6 - - W 1007,5 10 -
04.08.2020 23:00:00 21,8 17,4 11 6 - - W 1007,7 20 -
04.08.2020 22:00:00 22,0 14,9 4 2 23 12 N 1007,5 20 -
04.08.2020 21:00:00 22,4 16,2 4 2 25 14 N 1007,2 20 -
04.08.2020 20:00:00 22,8 16,8 4 2 - - N 1007,2 15 0
04.08.2020 19:00:00 23,8 17,3 21 11 33 18 W 1007,0 15 60
04.08.2020 18:00:00 25,0 18,0 18 10 32 18 WNW 1006,9 15 60
04.08.2020 17:00:00 25,2 17,4 18 10 - - WNW 1007,0 15 60
04.08.2020 16:00:00 25,0 17,2 22 12 40 21 W 1007,0 15 54
04.08.2020 15:00:00 25,8 16,9 4 2 46 25 N 1007,3 15 60
04.08.2020 14:00:00 25,8 17,2 28 15 - - W 1007,4 15 60
04.08.2020 13:00:00 25,6 17,5 4 2 44 24 N 1007,1 15 60
04.08.2020 12:00:00 26,4 17,2 4 2 39 21 N 1006,9 15 60
04.08.2020 11:00:00 26,0 16,8 4 2 - - N 1005,8 15 60
04.08.2020 10:00:00 25,8 17,7 4 2 32 17 N 1006,5 15 60
04.08.2020 09:00:00 25,4 20,0 4 2 29 16 N 1006,4 10 48
04.08.2020 08:00:00 24,2 -30,0 4 2 - - N 1006,3 10 -
04.08.2020 07:00:00 24,4 18,1 4 2 27 15 N 1006,0 10 0
04.08.2020 06:00:00 24,6 17,8 15 8 29 16 W 1006,2 10 -
04.08.2020 05:00:00 24,8 18,3 15 8 - - W 1006,5 10 -
04.08.2020 04:00:00 25,0 18,7 4 2 31 17 N 1006,9 10 -
04.08.2020 03:00:00 25,4 19,1 4 2 30 16 N 1007,5 10 -
04.08.2020 02:00:00 25,4 19,5 4 2 - - N 1007,3 10 -
04.08.2020 01:00:00 25,4 19,1 15 8 28 15 W 1007,6 10 -
04.08.2020 00:00:00 25,6 21,5 15 8 32 18 W 1007,3 10 -
03.08.2020 23:00:00 26,0 23,5 16 9 - - WNW 1007,0 10 -
03.08.2020 22:00:00 25,4 21,7 15 8 - - WNW 1006,4 10 -
03.08.2020 21:00:00 25,8 21,7 11 6 24 13 WNW 1006,2 10 -

tt = temperature
td = dewpoint
ff = wind speed
fx = gusts
dd = wind direction
ppp = reduced air pressure
vv = visibility
sd = sunshine duration

Next stations